TimeMDT,TemperatureF,Dew PointF,Humidity,Sea Level PressureIn,VisibilityMPH,Wind Direction,Wind SpeedMPH,Gust SpeedMPH,PrecipitationIn,Events,Conditions,WindDirDegrees,DateUTC
12:53 AM,14.0,7.0,74,30.29,10.0,Calm,Calm,-,N/A,,Overcast,0,2013-04-18 06:53:00
1:53 AM,12.9,6.1,74,30.29,10.0,SW,5.8,-,N/A,,Overcast,230,2013-04-18 07:53:00
2:53 AM,12.9,6.1,74,30.28,10.0,West,4.6,-,N/A,,Overcast,260,2013-04-18 08:53:00
3:53 AM,10.0,5.0,80,30.30,10.0,Calm,Calm,-,N/A,,Mostly Cloudy,0,2013-04-18 09:53:00
4:53 AM,9.0,3.0,77,30.31,10.0,Calm,Calm,-,N/A,,Scattered Clouds,0,2013-04-18 10:53:00
5:53 AM,7.0,1.9,80,30.33,10.0,SSW,3.5,-,N/A,,Clear,210,2013-04-18 11:53:00
6:11 AM,3.2,-0.4,85,30.13,10.0,Calm,Calm,-,N/A,,Partly Cloudy,0,2013-04-18 12:11:00
6:20 AM,3.2,-0.4,85,30.13,10.0,Calm,Calm,-,N/A,,Mostly Cloudy,0,2013-04-18 12:20:00
6:31 AM,5.0,1.4,85,30.14,9.0,Calm,Calm,-,N/A,,Scattered Clouds,0,2013-04-18 12:31:00
6:40 AM,3.2,1.4,92,30.15,10.0,Calm,Calm,-,N/A,,Mostly Cloudy,0,2013-04-18 12:40:00
6:51 AM,5.0,1.4,85,30.15,10.0,Calm,Calm,-,N/A,,Mostly Cloudy,0,2013-04-18 12:51:00
6:53 AM,5.0,1.0,84,30.38,10.0,Calm,Calm,-,N/A,,Overcast,0,2013-04-18 12:53:00
7:53 AM,6.1,3.0,87,30.40,10.0,Calm,Calm,-,N/A,,Overcast,0,2013-04-18 13:53:00
8:53 AM,10.0,5.0,80,30.40,10.0,Calm,Calm,-,N/A,,Overcast,0,2013-04-18 14:53:00
9:53 AM,14.0,8.1,77,30.42,7.0,West,3.5,-,N/A,,Overcast,270,2013-04-18 15:53:00
10:46 AM,17.6,10.4,73,30.21,7.0,WSW,6.9,-,0.00,,Overcast,250,2013-04-18 16:46:00
10:53 AM,18.0,10.9,74,30.42,10.0,West,6.9,-,0.00,,Overcast,260,2013-04-18 16:53:00
11:53 AM,19.9,12.0,71,30.43,10.0,SW,9.2,-,N/A,,Overcast,230,2013-04-18 17:53:00
12:53 PM,24.1,12.0,60,30.41,10.0,SW,11.5,-,N/A,,Overcast,230,2013-04-18 18:53:00
1:53 PM,26.1,10.9,53,30.40,10.0,SW,8.1,-,N/A,,Mostly Cloudy,230,2013-04-18 19:53:00
2:53 PM,27.0,12.0,53,30.40,10.0,WSW,11.5,-,0.00,,Overcast,240,2013-04-18 20:53:00
3:12 PM,26.6,12.2,55,30.23,10.0,WSW,11.5,-,0.00,,Mostly Cloudy,250,2013-04-18 21:12:00
3:53 PM,27.0,12.0,53,30.40,10.0,SW,10.4,-,0.00,,Clear,220,2013-04-18 21:53:00
4:53 PM,28.9,12.0,49,30.40,10.0,SW,8.1,-,N/A,,Clear,220,2013-04-18 22:53:00
5:53 PM,28.9,12.0,49,30.42,10.0,SW,8.1,-,N/A,,Scattered Clouds,230,2013-04-18 23:53:00
6:53 PM,28.0,12.0,51,30.41,10.0,South,10.4,-,N/A,,Mostly Cloudy,190,2013-04-19 00:53:00
7:53 PM,26.1,10.9,53,30.43,10.0,NE,3.5,-,N/A,,Overcast,40,2013-04-19 01:53:00
8:53 PM,24.1,16.0,71,30.44,10.0,Calm,Calm,-,N/A,,Overcast,0,2013-04-19 02:53:00
9:53 PM,23.0,15.1,72,30.44,10.0,SE,3.5,-,N/A,,Overcast,130,2013-04-19 03:53:00
10:53 PM,21.9,15.1,75,30.43,10.0,East,3.5,-,N/A,,Overcast,80,2013-04-19 04:53:00
11:53 PM,23.0,14.0,68,30.41,10.0,East,4.6,-,N/A,,Overcast,80,2013-04-19 05:53:00